Regional Weather Roundup
Issued by NWS Charleston, WV

Home | Current Version | Previous Version | Text Only | Print | Product List | Glossary On
Versions: 1 2 3 4 5 6 7 8 9 10 11 12 13 14 15 16 17 18 19 20 21 22 23 24 25 26 27 28 29 30 31 32 33 34 35 36 37 38 39 40 41 42 43 44 45 46 47 48 49 50
000
ASUS41 KRLX 202310
RWRRLX
West Virginia Regional Weather Roundup
National Weather Service Charleston WV
700 PM EDT MON OCT 20 2014

Note: "fair" indicates few or no clouds below 12,000 feet with no
significant weather and/or obstructions to visibility.

WVZ003-210000-
Northern Panhandle of West Virginia

CITY           SKY/WX    TMP DP  RH WIND       PRES   REMARKS
WHEELING       CLOUDY    54  42  64 S7        29.88F
$$

WVZ009-210000-
Northwest West Virginia

CITY           SKY/WX    TMP DP  RH WIND       PRES   REMARKS
PARKERSBURG    LGT RAIN  54  47  77 CALM      29.94S
$$

WVZ006-210000-
Western West Virginia

CITY           SKY/WX    TMP DP  RH WIND       PRES   REMARKS
HUNTINGTON     CLOUDY    57  47  69 SW6       29.90S
$$

WVZ015-210000-
West Central West Virginia

CITY           SKY/WX    TMP DP  RH WIND       PRES   REMARKS
CHARLESTON     MOCLDY    54  48  80 S5        29.91F
$$

WVZ022-031-210000-
North Central West Virginia

CITY           SKY/WX    TMP DP  RH WIND       PRES   REMARKS
CLARKSBURG     CLOUDY    54  44  69 S7        29.92R
MORGANTOWN     CLOUDY    58  40  51 S3        29.92S
$$

WVZ025-035-042-045-210000-
Southern West Virginia

CITY           SKY/WX    TMP DP  RH WIND       PRES   REMARKS
BECKLEY        CLOUDY    53  43  68 SW7       29.96S
LOGAN          CLOUDY    55  48  76 S5        29.93S
BLUEFIELD      CLOUDY    54  42  64 SW8       29.98F
LEWISBURG      CLOUDY    55  43  64 SW6       29.97S
$$

WVZ047-210000-
Northern Mountains of West Virginia

CITY           SKY/WX    TMP DP  RH WIND       PRES   REMARKS
ELKINS         CLOUDY    49  48  97 CALM      29.94S
$$

WVZ052-210000-
Eastern Panhandle of West Virginia

CITY           SKY/WX    TMP DP  RH WIND       PRES   REMARKS
MARTINSBURG    CLOUDY    57  44  62 S5        29.94F
PETERSBURG     CLOUDY   N/A N/A N/A CALM      29.94S
$$


USA.gov is the U.S. government's official web portal to all federal, state and local government web resources and services.